CDT,Max TemperatureF,Mean TemperatureF,Min TemperatureF,Max Dew PointF,MeanDew PointF,Min DewpointF,Max Humidity, Mean Humidity, Min Humidity, Max Sea Level PressureIn, Mean Sea Level PressureIn, Min Sea Level PressureIn, Max VisibilityMiles, Mean VisibilityMiles, Min VisibilityMiles, Max Wind SpeedMPH, Mean Wind SpeedMPH, Max Gust SpeedMPH,PrecipitationIn, CloudCover, Events, WindDirDegrees
2011-10-1,86,66,46,54,47,43,100,60,22,30.21,30.14,30.10,10,10,10,12,2,16,0.00,0,,33
2011-10-2,82,63,44,50,46,41,100,58,23,30.27,30.20,30.14,10,10,10,10,2,,0.00,0,,54
2011-10-3,86,64,42,54,46,41,100,63,22,30.29,30.21,30.16,10,10,4,6,0,,0.00,0,,67
2011-10-4,87,64,42,55,48,43,100,64,24,30.28,30.20,30.14,10,10,7,6,1,,0.00,0,,150
2011-10-5,89,68,46,57,51,46,100,66,27,30.21,30.14,30.06,10,10,7,9,1,,0.00,0,,133
2011-10-6,89,70,51,66,58,50,100,68,38,30.14,30.09,30.04,10,10,7,16,3,20,0.00,0,,119
2011-10-7,89,74,59,70,63,59,100,72,40,30.18,30.12,30.08,10,10,2,15,4,21,0.00,0,,117
2011-10-8,91,76,62,68,64,63,100,69,40,30.15,30.10,30.02,10,10,10,15,5,21,0.00,0,,115
2011-10-9,89,76,62,66,64,61,100,69,40,30.09,30.04,29.95,10,10,10,15,5,22,0.00,0,,104
2011-10-10,89,76,64,66,63,61,100,73,40,30.03,29.97,29.91,10,10,10,7,1,9,0.00,1,,35
2011-10-11,91,75,59,68,63,59,100,73,38,29.95,29.89,29.81,10,10,10,7,1,,0.00,0,,42
2011-10-12,86,73,60,70,65,61,100,87,51,29.86,29.82,29.76,10,10,5,22,3,33,0.00,1,Rain-Thunderstorm,227
2011-10-13,87,73,59,66,57,50,100,66,29,29.88,29.83,29.80,10,9,0,15,5,22,0.00,0,Fog,301
2011-10-14,89,68,48,57,50,45,100,62,21,30.02,29.96,29.91,10,10,7,6,1,,0.00,0,,101
2011-10-15,91,70,50,63,54,50,100,65,24,30.11,30.05,30.01,10,10,10,6,1,,0.00,0,,4
2011-10-16,93,72,50,64,57,50,100,69,32,30.13,30.07,29.97,10,10,10,10,2,16,0.00,0,,178
2011-10-17,91,72,53,70,62,54,100,77,38,29.99,29.91,29.76,10,8,0,14,2,17,0.00,3,Fog,188
2011-10-18,71,60,46,70,58,46,100,90,72,29.96,29.83,29.71,10,10,4,24,8,34,0.43,5,Rain-Thunderstorm,299
2011-10-19,68,55,42,45,39,34,100,62,28,30.07,29.97,29.91,10,10,10,28,8,38,0.00,0,,302
2011-10-20,73,53,33,45,37,34,100,63,23,30.15,30.10,30.05,10,10,10,12,2,17,0.00,0,,314
2011-10-21,82,60,37,50,43,37,100,66,26,30.25,30.18,30.12,10,10,10,9,1,,0.00,0,,115
2011-10-22,87,70,53,64,58,50,100,68,43,30.17,30.09,30.01,10,10,10,9,2,,0.00,3,,165
2011-10-23,80,70,60,70,64,59,100,86,57,30.11,30.03,29.98,10,9,0,13,4,21,0.02,5,Fog-Rain,230
2011-10-24,86,70,55,64,59,54,100,77,35,30.23,30.16,30.11,10,8,0,9,1,,0.00,1,Fog,64
2011-10-25,87,68,50,59,52,46,100,68,24,30.21,30.13,30.03,10,10,7,12,3,,0.00,0,,142
2011-10-26,89,72,55,68,62,55,100,74,40,30.05,29.97,29.88,10,8,0,10,5,16,0.00,3,Fog,164
2011-10-27,87,74,60,70,64,59,100,82,49,29.96,29.90,29.83,10,9,2,15,6,20,0.09,5,Rain,170
2011-10-28,59,55,51,57,51,46,100,89,67,30.19,30.09,29.96,10,10,7,14,9,21,0.18,8,Rain,349
2011-10-29,71,54,37,46,41,36,100,72,28,30.30,30.22,30.14,10,10,7,9,3,,0.00,0,,328
2011-10-30,71,52,33,48,40,34,100,74,29,30.25,30.19,30.13,10,9,0,6,1,,0.00,0,Fog,120
2011-10-31,78,56,35,52,44,36,100,71,32,30.26,30.20,30.14,10,10,10,6,1,,0.00,0,,314